Location: Beetenbrück
(52.8113°N, 9.5946°E)
Time: 22:40:32
(UTC+00:00)

NOSS 0 Rocket - Pass Details

Date: 14 April 2026
Orbit: 935 x 953 km, 70.0° (Epoch: 12 May)

Event Time Altitude Azimuth Distance (km) Brightness Sun altitude
Rises 20:18:37 0° 208° (SSW) 3,617 6.8 -16.4°
Reaches altitude 10° 20:21:08 10° 208° (SSW) 2,675 6.1 -16.7°
Maximum altitude 20:27:22 84° 121° (ESE) 964 3.9 -17.3°
Drops below altitude 10° 20:33:38 10° 34° (NE) 2,686 6.4 -18.0°
Sets 20:36:10 0° 34° (NE) 3,633 7.2 -18.3°
